Weather Roundup
Issued by NWS Chicago, IL

Home | Current Version | Previous Version | Text Only | Print | Product List | Glossary Off
Versions: 1 2 3 4 5 6 7 8 9 10 11 12 13 14 15 16 17 18 19 20 21 22 23 24 25 26 27 28 29 30 31 32 33 34 35 36 37 38 39 40 41 42 43 44 45 46 47 48 49 50

000
NZUS59 KLOT 280810
HRRLOT

CHICAGO AREA WEATHER ROUNDUP
NATIONAL WEATHER SERVICE CHICAGO/ROMEOVILLE IL
200 AM CST WED JAN 28 2015

NOTE: "FAIR" INDICATES FEW OR NO CLOUDS BELOW 12,000 FEET WITH NO
SIGNIFICANT WEATHER AND/OR OBSTRUCTIONS TO VISIBILITY.

* THESE STATIONS ARE NOT UNDER NWS QUALITY CONTROL. THEY ALSO MAY NOT
  REPORT WEATHER SUCH AS PRECIPITATION OR FOG.

ILZ005-006-012>014-019>023-280900-
NORTHEAST ILLINOIS

CITY           SKY/WX    TMP DP  RH WIND       PRES   REMARKS
OHARE          MOCLDY    23  18  81 W5        30.26R WCI  17
MIDWAY         MOCLDY    25  20  81 CALM      30.27S
AURORA         CLEAR     19  15  84 CALM      30.27R
LANSING*       MOCLDY    20  18  92 S3        30.27F
JOLIET*        CLEAR     17  16  93 CALM      30.29R
WAUKEGAN       MOCLDY    22  17  81 SW6       30.26R WCI  14
DUPAGE AIRPORT PTCLDY    19  15  84 CALM      30.26S
WHEELING       MOCLDY    23  18  81 CALM      30.28R
KANKAKEE*      PTCLDY    20  18  93 CALM      30.29R
MORRIS*        PTCLDY    22  20  89 CALM      30.27S
LEWIS AIRPORT* CLEAR     21  18  88 W3        30.28R
NORTHERLY IS     N/A     28  19  69 SE1         N/A
$$

WIZ051-052-058>065-066-070>072-280900-
SOUTHEAST WISCONSIN

CITY           SKY/WX    TMP DP  RH WIND       PRES   REMARKS
MILWAUKEE      MOCLDY    27  17  66 CALM      30.26R
KENOSHA*       MOCLDY    22  19  89 W3        30.26R
RACINE*        MOCLDY    25  19  78 W3        30.28R
BURLINGTON     MOCLDY    16  14  91 CALM      30.26R
WAUKESHA       MOCLDY    21  18  86 CALM      30.26R
WEST BEND      MOCLDY    23  18  80 CALM      30.25R
$$

INZ001>003-010>013-019-020-280900-
NORTHWEST INDIANA

CITY           SKY/WX    TMP DP  RH WIND       PRES   REMARKS
GARY*          MOCLDY    24  17  72 CALM      30.29R
MICHIGAN CITY* NOT AVBL
RENSSELAER*    NOT AVBL
VALPARAISO     PTCLDY    17  14  88 CALM      30.27R
$$

LMZ740>746-280900-
SOUTHERN LAKE MICHIGAN

STATION/POSITION TIME  SKY/WX   TEMP WIND        PRES    VSBY
                                AIR  DIR/SP/G
                 (UTC)          (F)  (DEG/KT/KT) (MB)    (MI)
HARRISON CRIB    0800            28  170/  2/  4   N/A
BURNHAM HARBOR   0800            28  170/  1/  3   N/A
CALUMET HARBOR   0800            26  180/  3/  4   N/A
BURNS HARBOR     NOT AVBL
MICHIGAN CITY    0800            22  130/  6/  8   N/A
$$

ABBREVIATIONS USED IN REMARKS
   TC - TEMPERATURE IN CELSIUS
  WCI - WIND CHILL INDEX
   HX - HEAT INDEX
  VSB - VISIBILITY
$$


USA.gov is the U.S. government's official web portal to all federal, state and local government web resources and services.